Regional Weather Roundup
Issued by NWS Little Rock, AR

Home | Current Version | Previous Version | Text Only | Print | Product List | Glossary Off
Versions: 1 2 3 4 5 6 7 8 9 10 11 12 13 14 15 16 17 18 19 20 21 22 23 24 25 26 27 28 29 30 31 32

000
ASUS44 KLZK 071305
RWRLZK

WEATHER ROUNDUP FOR ARKANSAS
NATIONAL WEATHER SERVICE LITTLE ROCK AR
700 AM CST WED DEC 07 2016

NOTE: "FAIR" INDICATES FEW OR NO CLOUDS BELOW 12,000 FEET WITH NO
SIGNIFICANT WEATHER AND/OR OBSTRUCTIONS TO VISIBILITY.

ARZ001-003-010-029-071400-
NORTHWEST ARKANSAS

CITY           SKY/WX    TMP DP  RH WIND       PRES   REMARKS
FAYETTEVILLE   CLOUDY    31  21  66 E9        30.15S WCI  23
FORT SMITH     CLOUDY    39  27  62 E8        30.14S
HARRISON       CLOUDY    30  22  72 SE3       30.19R
BENTONVILLE    CLOUDY    34  14  44 E9        30.15S WCI  26
ROGERS         CLOUDY    32  18  56 E13       30.14F WCI  22
SILOAM SPGS    CLOUDY    32  18  55 E8        30.12R WCI  25
HIGHFILL       CLOUDY    33  18  53 E12       30.14S WCI  24
$$

ARZ004-005-016-071400-
NORTH CENTRAL ARKANSAS

CITY           SKY/WX    TMP DP  RH WIND       PRES   REMARKS
BATESVILLE     CLOUDY    36  23  60 NE5       30.21R
FLIPPIN        CLOUDY    32  21  64 CALM      30.18S
MTN HOME       CLOUDY    30  20  66 E6        30.19R WCI  24
$$

ARZ040-041-071400-
WEST CENTRAL ARKANSAS

CITY           SKY/WX    TMP DP  RH WIND       PRES   REMARKS
MENA           CLOUDY    43  37  81 E7        30.11S
MOUNT IDA      CLOUDY    42  35  76 CALM      30.10R
$$

ARZ009-017-025-026-028-071400-
NORTHEAST ARKANSAS

CITY           SKY/WX    TMP DP  RH WIND       PRES   REMARKS
CORNING        CLOUDY    34  25  69 N9        30.23R WCI  26
JONESBORO      PTCLDY    35  27  72 NE9       30.20R WCI  28
NEWPORT        CLOUDY    36  30  79 N12       30.21R
WALNUT RIDGE   MOCLDY    36  23  60 N10       30.22R
BLYTHEVILLE    CLOUDY    36  32  85 N12       30.20R
$$

ARZ022-023-033-042-044-071400-
CENTRAL ARKANSAS

CITY           SKY/WX    TMP DP  RH WIND       PRES   REMARKS
LITTLE ROCK    CLOUDY    41  33  73 N9        30.18R
N LITTLE ROCK    N/A     39  31  71 E7        30.20R
JACKSONVILLE   CLOUDY    41  30  64 NE7       30.17R
SEARCY         CLOUDY    39  29  67 N10       30.21R
HOT SPRINGS    CLOUDY    42  34  73 E9        30.14S
RUSSELLVILLE   CLOUDY    39  26  59 NE5       30.17R
CLINTON        CLOUDY    37  23  56 VRB6      30.20S
$$

ARZ036-071400-
EAST ARKANSAS

CITY           SKY/WX    TMP DP  RH WIND       PRES   REMARKS
WEST MEMPHIS   CLOUDY    40  36  86 N7        30.17R
$$

ARZ050-053-066-070-073-071400-
SOUTHWEST ARKANSAS

CITY           SKY/WX    TMP DP  RH WIND       PRES   REMARKS
ARKADELPHIA    CLOUDY    43  36  76 NE6       30.16R
CAMDEN         MIX PCPN  43  36  75 N3        30.14S
TEXARKANA      CLOUDY    43  40  89 E6        30.12R
EL DORADO      CLOUDY    44  41  89 NE7       30.12S
DE QUEEN       CLOUDY    44  39  82 E9        30.10S
$$

ARZ056-057-069-071400-
SOUTHEAST ARKANSAS

CITY           SKY/WX    TMP DP  RH WIND       PRES   REMARKS
PINE BLUFF     CLOUDY    42  37  82 NE9       30.16R
STUTTGART      CLOUDY    43  32  65 NE12      30.16S
MONTICELLO     CLOUDY    44  40  85 NE5       30.14R

$$






USA.gov is the U.S. government's official web portal to all federal, state and local government web resources and services.